This is the latest recevied weather packets stored in our database for station/object K1AWR. If no packets are shown the sender has not sent any weather packets the latest 10 day(s).
| Time | Temp. | Humidity | Pressure | Rain* | Wind** | Luminosity | Snow |
|---|---|---|---|---|---|---|---|
| 1777928970 | 22.22° C | 32% | 1008.3 hPa | 0 mm | - | 185 W/m² | - |
| 1777928667 | 22.22° C | 31% | 1008.4 hPa | 0 mm | - | 72 W/m² | - |
| 1777928364 | 22.78° C | 31% | 1008.3 hPa | 0 mm | - | 265 W/m² | - |
| 1777928061 | 23.89° C | 33% | 1008.4 hPa | 0 mm | - | 236 W/m² | - |
| 1777927759 | 23.89° C | 29% | 1008.4 hPa | 0 mm | - | 369 W/m² | - |
| 1777927457 | 23.33° C | 33% | 1008.1 hPa | 0 mm | - | 405 W/m² | - |
| 1777927157 | 23.33° C | 33% | 1008.1 hPa | 0 mm | - | 371 W/m² | - |
| 1777926854 | 23.89° C | 32% | 1008.2 hPa | 0 mm | - | 386 W/m² | - |
| 1777926549 | 23.89° C | 30% | 1008.4 hPa | 0 mm | - | 429 W/m² | - |
| 1777926246 | 23.89° C | 29% | 1008.2 hPa | 0 mm | - | 412 W/m² | - |
| 1777925943 | 23.33° C | 32% | 1008.3 hPa | 0 mm | - | 461 W/m² | - |
| 1777925640 | 23.89° C | 30% | 1008.3 hPa | 0 mm | - | 480 W/m² | - |
| 1777925337 | 23.89° C | 30% | 1008.3 hPa | 0 mm | - | 487 W/m² | - |
| 1777925034 | 23.89° C | 30% | 1008.3 hPa | 0 mm | - | 506 W/m² | - |
| 1777924731 | 23.89° C | 30% | 1008.3 hPa | 0 mm | - | 507 W/m² | - |
| 1777924426 | 23.33° C | 30% | 1008.4 hPa | 0 mm | - | 531 W/m² | - |
| 1777924123 | 23.89° C | 30% | 1008.7 hPa | 0 mm | - | 540 W/m² | - |
| 1777923819 | 23.89° C | 28% | 1008.5 hPa | 0 mm | - | 549 W/m² | - |
| 1777923515 | 23.89° C | 29% | 1008.3 hPa | 0 mm | - | 564 W/m² | - |
| 1777923213 | 23.89° C | 28% | 1008.4 hPa | 0 mm | - | 575 W/m² | - |
| 1777922911 | 23.89° C | 30% | 1008.5 hPa | 0 mm | - | 592 W/m² | - |
| 1777922609 | 23.89° C | 29% | 1008.4 hPa | 0 mm | - | 624 W/m² | - |
| 1777922307 | 23.89° C | 28% | 1008.8 hPa | 0 mm | - | 632 W/m² | - |
| 1777922004 | 23.89° C | 28% | 1008.8 hPa | 0 mm | - | 614 W/m² | - |
| 1777921700 | 23.33° C | 34% | 1008.6 hPa | 0 mm | - | 625 W/m² | - |
* Rain latest hour (hover to see other rain measurements)
** Current wind speed in m/s (hover to see current wind gust speed)